Погода в Анновке

Россия / Амурская область     50°22′46″N   128°21′02″E
темп.,
°C
ветер,
м/с
пор.,
м/с
влажн.,
%
обл.,
%
осадки,
мм/ч
давл.,
гПа
погр.,
м
8 мая, сб
сб800:00+7ссв61341100 0.0 997447
03:00+6с6124995 0.0 997421
06:00+4с6135662 0.0 998478
09:00+7с7845100 0.0 998816
12:00+11с6640100 0.0 9971318
15:00+14ссв683650 0.0 9961910
18:00+13ссв5632100 0.0 9972208
21:00+9вюв2460100 0.0 999138
9 мая, вс
вс900:00+6вюв3577100 0.0 1001235
03:00+5св3684100 0.0 1001212
06:00+5с3682100 0.0 1003299
09:00+8с5666100 0.0 1004859
12:00+10с4556100 0.0 10051360
15:00+11ссв455598 0.1 10051439
18:00+11ссз3452100 0.1 10071329
21:00+8ссз475893 0.1 1008261
10 мая, пн
пн1000:00+7сз3664100 0.0 1009182
03:00+4сз357429 0.0 1010107
06:00+4сз367555 0.0 1011197
09:00+10ссз3553100 0.0 1011793
12:00+14сз453997 0.0 10111809
15:00+16ссз4530100 0.0 10102557
18:00+16с342924 0.0 10102297
21:00+10вюв475694 0.0 1012134
11 мая, вт
вт1100:00+8юв346346 0.0 101360
03:00+7вюв34697 0.0 101453
06:00+7ююв356895 0.0 1015121
09:00+15ю574998 0.0 1013726
12:00+19ю7836100 0.0 10121898
15:00+20ю7928100 0.0 10092605
18:00+19ююв71131100 0.0 10081568
21:00+15ююв91642100 0.0 1007590
12 мая, ср
ср1200:00+13ююв101853100 0.0 1006737
03:00+11юв101862100 0.1 1004729
06:00+9юв122286100 4.0 10011283
09:00+11ююв11188199 7.4 10001238
12:00+13юв111474100 0.8 9991149
15:00+15ююв11166299 1.9 9941964
18:00+14ю71053100 2.6 9941281
21:00+10ю61081100 3.7 997397